DECAYED

COSMOS 2251 DEB, 34033 (Decayed)

Orbit data source: Space-Track

COSMOS 2251 DEB, 34033 was space debris in LEO originally from a launch on Wed, 16 Jun 1993 UTC launched from the Plesetsk Missile And Space Complex (PKMTR). The debris from Iridium 33, an American commercial communications satellite, has been tracked extensively since its accidental collision with the defunct Russian satellite Cosmos 2251 in 2009. This event, occurring at high speed in low Earth orbit (LEO), generated thousands of pieces of space debris, significantly increasing the risk of further collisions. The Iridium 33 debris cloud has impacted space traffic management and orbital debris mitigation strategies, making it a subject of ongoing study in space situational awareness.

Not visible in the next 10 days
Identifier
34033, 1993-036HU
Orbit
Decayed
Country
Flag of CISCIS
Related business
Manufacturer
Unknown
Mission
Decayed spacecraft
Bus & Motor
Unknown
Mass
Unknown
Launch date (UTC)
1993-06-16 (33 years ago)
Launch vehicle
Unknown
Launch site
Plesetsk Missile And Space Complex (PKMTR)
Object type
Payload
Rocket body
Debris
Shape & HBR
Unknown shape, 0.1 m
Radar Cross Section
Small (<0.1 m²)

Expand to show TLE details & history
Last TLE update: 1 year ago

TLE from 1 year ago
0 COSMOS 2251 DEB
1 34033U 93036HU  25057.13207578  .06065580  48495-1  27379-1 0  9996
2 34033  73.9424 317.9722 0019144 178.1437 181.9870 15.88196808843402
Epoch: 2025-02-26T03:10Z
TLE epoch observation values (Epoch: 2025-02-26T03:10:11.347Z)
Latitude
-0.00005°
Longitude
114.19891°
Altitude
322.919 km
Speed
7.707 km/s
True Right ascension
21h 11m 53s
True Declination
0° 00' 00"
Sunlit
Object was in daylight at epoch
Visualization orbit readout
Latitude
Unknown
Longitude
Unknown
Altitude
Unknown
Speed
Unknown
Apparent Right ascension
Unknown
Apparent Declination
Unknown
Sunlit
N/A
Visualization observer readout
Local Sidereal Time
13:27:44
Azimuth
Unknown
Elevation
Unknown
Doppler factor
Unknown
Orbital elements
Apogee altitude
317.599 km
Perigee altitude
292.012 km
Semi-major axis
6,682.942 km
Eccentricity
0.00191
Inclination
73.9424°
RAAN
317.9722°
Arg. of periapsis
178.1437°
True anomaly
181.97941°
Mean anomaly
181.987°
Eccentric anomaly
181.9832°
Mean motion
3.97275 °/min
Orbital period
90.62 mins
BSTAR
0.027379

Documentation

Showing up to 5 results
|